This demonstration page uses our WeatherBlox Daily Observations layout. Learn more.

Hourly Observations for May 27, 2016

Temp ( °F °C ) Dew Point ( °F °C ) Humidity (%) Winds ( mph kmh ) Pressure ( in mb ) Visibility ( mi km ) Precip ( " mm )
12:15 am 00:15 Cloudy with Light Rain 58 14.7 57 13.7 94 94 NNE 13 20 29.71 1006 10 16.0934 0.02 0.508
12:35 am 00:35 Partly Cloudy 58 14.5 56 13.5 94 94 ENE 22 35 29.65 1004 10 16.0934 0.03 0.762
12:55 am 00:55 Clear 58 14.5 56 13.5 94 94 ESE 18 30 29.68 1005 10 16.0934 0.03 0.762
1:15 am 01:15 Clear 58 14.6 56 13.1 91 91 SE 16 26 29.71 1006 10 16.0934 0 0
1:35 am 01:35 Clear 58 14.5 56 13.1 91 91 SE 14 22 29.71 1006 10 16.0934 0 0
1:55 am 01:55 Clear 58 14.3 55 12.9 91 91 SE 13 20 29.71 1006 10 16.0934 0 0
2:15 am 02:15 Clear 57 14 55 12.7 92 92 ESE 14 22 29.71 1006 10 16.0934 0 0
2:35 am 02:35 Mostly Cloudy 57 14 55 12.8 93 93 SE 15 24 29.74 1007 10 16.0934 0 0
2:55 am 02:55 Partly Cloudy 56 13.6 55 12.5 93 93 SE 13 20 29.77 1008 10 16.0934 0 0
3:15 am 03:15 Clear 56 13.5 54 12 91 91 SE 10 17 29.74 1007 10 16.0934 0 0
3:35 am 03:35 Mostly Cloudy 56 13.5 54 12.3 93 93 SE 10 17 29.68 1005 10 16.0934 0 0
3:55 am 03:55 Cloudy 57 13.8 55 12.6 93 93 SE 12 19 29.68 1005 10 16.0934 0 0
4:15 am 04:15 Mostly Cloudy 57 13.8 55 12.6 93 93 SE 7 11 29.68 1005 10 16.0934 0 0
4:35 am 04:35 Partly Cloudy 56 13.2 54 12.1 93 93 SE 3 6 29.71 1006 10 16.0934 0 0
4:55 am 04:55 Clear 55 13 54 12.1 94 94 S 3 6 29.71 1006 10 16.0934 0 0
5:15 am 05:15 Clear 54 12.2 52 11.3 94 94 Calm 29.71 1006 10 16.0934 0 0
5:35 am 05:35 Partly Cloudy 54 12.3 53 11.6 96 96 Calm 29.68 1005 7 11.26538 0 0
5:55 am 05:55 Mostly Cloudy 54 12 52 11.3 96 96 Calm 29.71 1006 7 11.26538 0 0
6:15 am 06:15 Mostly Cloudy 54 12 52 11.3 96 96 Calm 29.71 1006 7 11.26538 0 0
6:35 am 06:35 Cloudy 55 12.6 54 12 96 96 Calm 29.71 1006 10 16.0934 0 0
6:55 am 06:55 Mostly Cloudy 55 13 55 12.5 97 97 SSW 5 7 29.71 1006 10 16.0934 0 0
7:15 am 07:15 Partly Cloudy 55 13 54 12.3 96 96 SW 5 7 29.71 1006 10 16.0934 0 0
7:35 am 07:35 Partly Cloudy 56 13.3 54 12.4 94 94 N 7 11 29.74 1007 10 16.0934 0 0
7:55 am 07:55 Cloudy 57 13.7 55 12.7 94 94 N 3 6 29.77 1008 10 16.0934 0 0
8:15 am 08:15 Cloudy 57 14 55 12.6 91 91 N 5 7 29.74 1007 10 16.0934 0 0
8:35 am 08:35 Cloudy 58 14.6 55 12.5 87 87 N 3 6 29.74 1007 10 16.0934 0 0
8:55 am 08:55 Cloudy 59 15 55 12.7 86 86 NNE 6 9 29.74 1007 10 16.0934 0 0
9:15 am 09:15 Cloudy 59 15 55 12.5 85 85 NNE 5 7 29.74 1007 10 16.0934 0 0
9:35 am 09:35 Cloudy 59 15 55 12.6 86 86 NNE 6 9 29.74 1007 10 16.0934 0 0
9:55 am 09:55 Cloudy 59 15 55 13 88 88 NE 8 13 29.74 1007 10 16.0934 0 0
10:15 am 10:15 Cloudy 59 14.8 56 13.1 90 90 ENE 9 15 29.74 1007 10 16.0934 0 0
10:35 am 10:35 Cloudy with Light Rain 58 14.7 56 13.4 92 92 E 9 15 29.74 1007 10 16.0934 0.01 0.254
10:55 am 10:55 Cloudy 58 14.7 56 13.5 93 93 E 8 13 29.74 1007 10 16.0934 0.02 0.508
11:15 am 11:15 Cloudy 59 15 56 13.5 91 91 E 12 19 29.74 1007 10 16.0934 0 0
11:35 am 11:35 Cloudy 59 15.1 56 13.6 91 91 E 9 15 29.74 1007 10 16.0934 0 0
11:55 am 11:55 Cloudy 60 15.5 56 13.5 88 88 E 9 15 29.74 1007 10 16.0934 0 0
12:15 pm 12:15 Cloudy 60 15.5 56 13.4 87 87 ENE 12 19 29.74 1007 10 16.0934 0 0
12:35 pm 12:35 Cloudy 60 15.8 56 13.2 85 85 E 13 20 29.74 1007 10 16.0934 0 0
12:55 pm 12:55 Cloudy 61 16 56 13.4 85 85 E 12 19 29.74 1007 10 16.0934 0 0
1:15 pm 13:15 Cloudy 60 15.8 56 13.5 86 86 E 14 22 29.74 1007 7 11.26538 0 0
1:35 pm 13:35 Cloudy 61 16.3 56 13.6 84 84 E 14 22 29.74 1007 10 16.0934 0 0
1:55 pm 13:55 Cloudy 62 16.7 56 13.3 80 80 E 14 22 29.74 1007 10 16.0934 0 0
2:15 pm 14:15 Cloudy 62 16.9 56 13.6 81 81 E 13 20 29.74 1007 10 16.0934 0 0
2:35 pm 14:35 Cloudy 64 17.5 57 14 80 80 E 10 17 29.71 1006 10 16.0934 0 0
2:55 pm 14:55 Cloudy 64 17.9 57 13.9 78 78 ESE 10 17 29.68 1005 10 16.0934 0 0
3:15 pm 15:15 Mostly Cloudy 64 18 58 14.3 79 79 E 13 20 29.68 1005 10 16.0934 0 0
3:35 pm 15:35 Cloudy 64 18 57 14.1 78 78 E 9 15 29.68 1005 10 16.0934 0 0
3:55 pm 15:55 Cloudy 64 18 58 14.2 79 79 E 12 19 29.65 1004 10 16.0934 0 0
4:15 pm 16:15 Cloudy 64 17.5 57 14 80 80 E 12 19 29.65 1004 10 16.0934 0 0
4:35 pm 16:35 Cloudy 64 17.8 58 14.3 80 80 E 8 13 29.65 1004 10 16.0934 0 0
4:55 pm 16:55 Cloudy 64 17.6 58 14.4 82 82 E 12 19 29.65 1004 10 16.0934 0 0
5:15 pm 17:15 Cloudy 64 17.5 58 14.3 82 82 E 9 15 29.65 1004 10 16.0934 0 0
5:35 pm 17:35 Cloudy with Nearby Thunderstorms 64 17.8 58 14.6 82 82 E 8 13 29.65 1004 10 16.0934 0 0
5:55 pm 17:55 Cloudy 64 17.7 58 14.5 82 82 E 7 11 29.65 1004 10 16.0934 0 0
6:15 pm 18:15 Cloudy 64 17.5 58 14.5 83 83 E 7 11 29.65 1004 10 16.0934 0 0
6:35 pm 18:35 Cloudy 64 17.6 59 14.8 84 84 ENE 5 7 29.65 1004 10 16.0934 0 0
6:55 pm 18:55 Cloudy 63 17.2 59 14.8 86 86 NE 7 11 29.65 1004 10 16.0934 0 0
7:15 pm 19:15 Cloudy 63 17.2 59 15.1 88 88 NE 7 11 29.62 1003 10 16.0934 0 0
7:35 pm 19:35 Mostly Cloudy 64 17.8 59 15.1 84 84 ENE 9 15 29.65 1004 10 16.0934 0 0
7:55 pm 19:55 Cloudy 63 17.2 59 14.8 86 86 ENE 7 11 29.65 1004 10 16.0934 0 0
8:15 pm 20:15 Mostly Cloudy 62 16.9 59 14.9 88 88 Calm 29.65 1004 10 16.0934 0 0
8:35 pm 20:35 Cloudy 63 17 59 15 88 88 Calm 29.65 1004 10 16.0934 0 0
8:55 pm 20:55 Cloudy 62 16.8 59 15 89 89 Calm 29.65 1004 10 16.0934 0 0
9:15 pm 21:15 Cloudy 62 16.9 59 15 89 89 Calm 29.65 1004 10 16.0934 0 0
9:35 pm 21:35 Cloudy 63 17 59 15 88 88 Calm 29.65 1004 10 16.0934 0 0
9:55 pm 21:55 Cloudy 62 16.9 59 15.1 89 89 NNW 3 6 29.65 1004 10 16.0934 0 0
10:15 pm 22:15 Cloudy with Nearby Thunderstorms 62 16.9 59 15.1 89 89 NNE 5 7 29.65 1004 10 16.0934 0 0
10:35 pm 22:35 Cloudy with Light Rain 62 16.5 59 14.8 90 90 NE 10 17 29.68 1005 10 16.0934 0.02 0.508
10:55 pm 22:55 Cloudy with Light Thunderstorms 60 15.6 57 14.1 91 91 NE 3 6 29.68 1005 10 16.0934 0.03 0.762
11:15 pm 23:15 Cloudy 60 15.5 57 14 91 91 Calm 29.71 1006 10 16.0934 0 0
11:35 pm 23:35 Cloudy with Light Rain 60 15.5 57 14.1 91 91 N 6 9 29.71 1006 10 16.0934 0 0
11:55 pm 23:55 Cloudy 60 15.4 57 13.9 91 91 N 7 11 29.71 1006 10 16.0934 0.01 0.254

Powered by AerisWeather